| time (UTC) | temp C | wind direction | speed KPH | gust KPH | rain 1hr cm | rain 24hr cm | rain mn cm | humidity % | barometer mb |
| 20260506044535 | 12 | 101 | 1.6 | 6.4 | 0.00 | 0.00 | 0.00 | 80 | 1017.5 |
| 20260506043035 | 13 | 22 | 0.0 | 0.0 | 0.00 | 0.00 | 0.00 | 77 | 1017.5 |
| 20260506041537 | 14 | 23 | 0.0 | 4.8 | 0.00 | 0.00 | 0.00 | 73 | 1017.4 |
| 20260506040141 | 15 | 8 | 1.6 | 8.0 | 0.00 | 0.00 | 0.00 | 71 | 1017.2 |
| 20260506034532 | 15 | 33 | 3.2 | 9.7 | 0.00 | 0.00 | 0.00 | 70 | 1016.9 |
| 20260506033031 | 16 | 89 | 1.6 | 6.4 | 0.00 | 0.00 | 0.00 | 66 | 1016.6 |
| 20260506031532 | 17 | 340 | 1.6 | 6.4 | 0.00 | 0.00 | 0.00 | 62 | 1016.5 |
| 20260506030037 | 18 | 322 | 1.6 | 8.0 | 0.00 | 0.00 | 0.00 | 59 | 1016.3 |
| 20260506024536 | 19 | 348 | 4.8 | 12.9 | 0.00 | 0.00 | 0.00 | 57 | 1016.1 |
| 20260506023034 | 20 | 354 | 6.4 | 12.9 | 0.00 | 0.00 | 0.00 | 55 | 1016.0 |
| 20260506020150 | 21 | 7 | 8.0 | 16.1 | 0.00 | 0.00 | 0.00 | 52 | 1015.8 |
| 20260506014636 | 22 | 1 | 8.0 | 19.3 | 0.00 | 0.00 | 0.00 | 50 | 1015.7 |
| 20260506011606 | 23 | 2 | 6.4 | 17.7 | 0.00 | 0.00 | 0.00 | 46 | 1015.6 |
| 20260506010033 | 24 | 317 | 8.0 | 19.3 | 0.00 | 0.00 | 0.00 | 45 | 1015.5 |
| 20260506004635 | 24 | 316 | 8.0 | 16.1 | 0.00 | 0.00 | 0.00 | 47 | 1015.6 |
| 20260506003033 | 24 | 7 | 6.4 | 16.1 | 0.00 | 0.00 | 0.00 | 49 | 1015.6 |
| 20260505234530 | 23 | 12 | 8.0 | 17.7 | 0.00 | 0.00 | 0.00 | 49 | 1015.8 |
| 20260505233031 | 23 | 22 | 8.0 | 17.7 | 0.00 | 0.00 | 0.00 | 48 | 1015.8 |
| 20260505230148 | 23 | 10 | 8.0 | 17.7 | 0.00 | 0.00 | 0.00 | 48 | 1015.9 |
| 20260505224532 | 23 | 354 | 8.0 | 17.7 | 0.00 | 0.00 | 0.00 | 49 | 1016.0 |
| 20260505221637 | 23 | 1 | 6.4 | 14.5 | 0.00 | 0.00 | 0.00 | 48 | 1016.2 |
| 20260505220035 | 23 | 7 | 8.0 | 17.7 | 0.00 | 0.00 | 0.00 | 48 | 1016.3 |
| 20260505214534 | 23 | 6 | 6.4 | 20.9 | 0.00 | 0.00 | 0.00 | 48 | 1016.3 |
| 20260505213105 | 23 | 5 | 4.8 | 12.9 | 0.00 | 0.00 | 0.00 | 50 | 1016.4 |
| 20260505211530 | 23 | 331 | 8.0 | 16.1 | 0.00 | 0.00 | 0.00 | 50 | 1016.5 |
| 20260505210031 | 22 | 345 | 6.4 | 14.5 | 0.00 | 0.00 | 0.00 | 51 | 1016.6 |
| 20260505204533 | 22 | 356 | 8.0 | 16.1 | 0.00 | 0.00 | 0.00 | 51 | 1016.7 |
| 20260505203034 | 22 | 352 | 8.0 | 16.1 | 0.00 | 0.00 | 0.00 | 52 | 1016.8 |
| 20260505201534 | 22 | 340 | 6.4 | 17.7 | 0.00 | 0.00 | 0.00 | 52 | 1016.8 |
| 20260505200028 | 21 | 345 | 6.4 | 14.5 | 0.00 | 0.00 | 0.00 | 54 | 1016.9 |
| 20260505194530 | 21 | 12 | 8.0 | 16.1 | 0.00 | 0.00 | 0.00 | 54 | 1017.0 |
| 20260505191530 | 21 | 39 | 6.4 | 14.5 | 0.00 | 0.00 | 0.00 | 54 | 1017.2 |
| 20260505190033 | 20 | 3 | 4.8 | 14.5 | 0.00 | 0.00 | 0.00 | 54 | 1017.2 |
| 20260505184530 | 20 | 15 | 6.4 | 16.1 | 0.00 | 0.00 | 0.00 | 55 | 1017.3 |
| 20260505183031 | 20 | 40 | 6.4 | 16.1 | 0.00 | 0.00 | 0.00 | 55 | 1017.3 |
| 20260505181536 | 20 | 16 | 8.0 | 17.7 | 0.00 | 0.00 | 0.00 | 54 | 1017.3 |
| 20260505180108 | 20 | 16 | 6.4 | 16.1 | 0.00 | 0.00 | 0.00 | 54 | 1017.2 |
| 20260505174535 | 19 | 34 | 6.4 | 19.3 | 0.00 | 0.00 | 0.00 | 56 | 1017.2 |
| 20260505173035 | 19 | 355 | 6.4 | 16.1 | 0.00 | 0.00 | 0.00 | 56 | 1017.1 |
| 20260505171536 | 18 | 31 | 4.8 | 12.9 | 0.00 | 0.00 | 0.00 | 58 | 1017.1 |
| 20260505170038 | 17 | 358 | 6.4 | 14.5 | 0.00 | 0.00 | 0.00 | 60 | 1017.1 |
| 20260505164535 | 17 | 8 | 6.4 | 14.5 | 0.00 | 0.00 | 0.00 | 61 | 1017.0 |
| 20260505163143 | 17 | 9 | 6.4 | 14.5 | 0.00 | 0.00 | 0.00 | 63 | 1016.9 |
| 20260505153034 | 15 | 17 | 4.8 | 9.7 | 0.00 | 0.00 | 0.00 | 68 | 1017.0 |
| 20260505151536 | 16 | 302 | 1.6 | 11.3 | 0.00 | 0.00 | 0.00 | 69 | 1016.9 |
| 20260505124643 | 8 | 140 | 4.8 | 9.7 | 0.00 | 0.00 | 0.00 | 91 | 1015.9 |
| 20260505123036 | 8 | 149 | 4.8 | 6.4 | 0.00 | 0.00 | 0.00 | 90 | 1015.9 |
| 20260505121608 | 8 | 147 | 4.8 | 8.0 | 0.00 | 0.00 | 0.00 | 90 | 1015.9 |
| 20260505114534 | 8 | 142 | 4.8 | 8.0 | 0.00 | 0.00 | 0.00 | 89 | 1015.8 |
| 20260505113035 | 8 | 141 | 4.8 | 8.0 | 0.00 | 0.00 | 0.00 | 88 | 1015.8 |
| 20260505111531 | 8 | 149 | 4.8 | 6.4 | 0.00 | 0.00 | 0.00 | 87 | 1015.7 |
| 20260505100044 | 10 | 130 | 4.8 | 9.7 | 0.00 | 0.00 | 0.00 | 84 | 1015.3 |
| 20260505094648 | 10 | 146 | 4.8 | 8.0 | 0.00 | 0.00 | 0.00 | 82 | 1015.3 |
| 20260505093036 | 11 | 126 | 3.2 | 9.7 | 0.00 | 0.00 | 0.00 | 81 | 1015.3 |
| 20260505084531 | 11 | 138 | 4.8 | 9.7 | 0.00 | 0.00 | 0.00 | 80 | 1015.0 |
| 20260505083119 | 11 | 137 | 4.8 | 9.7 | 0.00 | 0.00 | 0.00 | 79 | 1015.1 |
| 20260505081530 | 11 | 142 | 4.8 | 9.7 | 0.00 | 0.00 | 0.00 | 79 | 1015.1 |
| 20260505080036 | 11 | 135 | 4.8 | 8.0 | 0.00 | 0.00 | 0.00 | 79 | 1015.1 |
| 20260505074535 | 12 | 156 | 4.8 | 9.7 | 0.00 | 0.00 | 0.00 | 80 | 1015.1 |
| 20260505073031 | 12 | 140 | 4.8 | 8.0 | 0.00 | 0.00 | 0.00 | 81 | 1015.0 |
| 20260505071642 | 12 | 149 | 3.2 | 9.7 | 0.00 | 0.00 | 0.00 | 79 | 1014.9 |
| 20260505070031 | 13 | 170 | 3.2 | 8.0 | 0.00 | 0.00 | 0.00 | 79 | 1014.9 |
| 20260505064529 | 13 | 238 | 0.0 | 6.4 | 0.00 | 0.00 | 0.00 | 79 | 1014.9 |
| 20260505063029 | 13 | 131 | 0.0 | 6.4 | 0.00 | 0.00 | 0.00 | 78 | 1014.9 |
| 20260505061608 | 13 | 289 | 0.0 | 6.4 | 0.00 | 0.00 | 0.00 | 76 | 1014.9 |